Date String (YYYY-MM-DD hh:mm:ss) UTC,Instrument flags,Ambient pressure (hPa),Sample flow (lpm),Bypass flow (lpm),Sample temperature (°C),Ambient temperature (°C),ASC tube jacket temperature (°C),LED temperature (°C),Box temperature (°C),Sample RH (%),Span deviation,Mass concentration (μg/m³),Mass concentration (μg/m³),Mass concentration (μg/m³)
DateTimeUTC,F1_M11,P_M11,Q1_M11,Q2_M11,T1_M11,T2_M11,T3_M11,T4_M11,T5_M11,U1_M11,ZSPAN_M11,X0_M11,X2_M11,X1_M11
2023-02-16 07:00:00,,0825.7,5.00,0.00,22.6,20.9,00.0,31.5,24.3,07.3,0000.0,0002.93,0002.10,0001.74
2023-02-16 07:01:00,,0825.7,5.02,0.00,22.6,20.8,00.0,31.5,24.2,07.3,0000.0,0002.98,0002.14,0001.77
2023-02-16 07:02:00,,0825.9,4.99,0.00,22.5,20.7,00.0,31.5,24.2,07.3,0000.0,0002.94,0002.17,0001.79
2023-02-16 07:03:00,,0826.2,5.00,0.00,22.5,21.2,00.0,31.5,24.3,07.3,0000.0,0002.89,0002.15,0001.80
2023-02-16 07:04:00,,0826.1,4.95,0.00,22.6,22.3,00.0,31.4,24.5,07.3,0000.0,0002.82,0002.14,0001.81
2023-02-16 07:05:00,,0825.7,5.04,0.00,22.8,23.1,00.0,31.4,24.8,07.2,0000.0,0002.92,0002.18,0001.82
2023-02-16 07:06:00,,0826.3,4.99,0.00,22.8,22.8,00.0,31.5,24.7,07.2,0000.0,0002.96,0002.17,0001.81
2023-02-16 07:07:00,,0826.2,5.00,0.00,22.8,22.4,00.0,31.5,24.7,07.2,0000.0,0002.98,0002.18,0001.80
2023-02-16 07:08:00,,0826.2,5.03,0.00,22.8,21.9,00.0,31.5,24.6,07.1,0000.0,0003.00,0002.16,0001.80
2023-02-16 07:09:00,,0825.9,4.99,0.00,22.8,21.6,00.0,31.6,24.5,07.1,0000.0,0002.99,0002.15,0001.80
2023-02-16 07:10:00,,0825.7,5.00,0.00,22.7,21.3,00.0,31.5,24.4,07.1,0000.0,0002.95,0002.12,0001.79
2023-02-16 07:11:00,,0825.9,5.00,0.00,22.7,21.1,00.0,31.5,24.4,07.2,0000.0,0002.91,0002.10,0001.79
2023-02-16 07:12:00,,0825.9,4.99,0.00,22.6,21.0,00.0,31.5,24.3,07.2,0000.0,0002.95,0002.09,0001.77
2023-02-16 07:13:00,,0825.7,4.99,0.00,22.6,20.9,00.0,31.5,24.2,07.2,0000.0,0002.99,0002.09,0001.75
2023-02-16 07:14:00,,0825.9,4.99,0.00,22.6,20.7,00.0,31.5,24.2,07.2,0000.0,0002.98,0002.07,0001.74
2023-02-16 07:15:00,,0825.7,5.00,0.00,22.5,21.0,00.0,31.5,24.2,07.2,0000.0,0002.94,0002.04,0001.71
2023-02-16 07:16:00,,0825.9,5.01,0.00,22.6,22.1,00.0,31.4,24.5,07.2,0000.0,0002.76,0001.94,0001.67
2023-02-16 07:17:00,,0826.0,4.96,0.00,22.7,23.0,00.0,31.4,24.7,07.1,0000.0,0002.76,0001.93,0001.65
2023-02-16 07:18:00,,0825.8,5.00,0.00,22.8,23.0,00.0,31.5,24.8,07.1,0000.0,0002.86,0001.92,0001.61
2023-02-16 07:19:00,,0825.8,4.98,0.00,22.8,22.5,00.0,31.5,24.7,07.1,0000.0,0002.80,0001.91,0001.59
2023-02-16 07:20:00,,0825.8,5.01,0.00,22.8,22.0,00.0,31.5,24.6,07.1,0000.0,0002.90,0001.92,0001.57
2023-02-16 07:21:00,,0825.7,4.99,0.00,22.8,21.7,00.0,31.6,24.5,07.1,0000.0,0002.91,0001.90,0001.54
2023-02-16 07:22:00,,0825.7,5.02,0.00,22.7,21.4,00.0,31.6,24.5,07.1,0000.0,0002.88,0001.88,0001.53
2023-02-16 07:23:00,,0825.7,4.99,0.00,22.7,21.2,00.0,31.6,24.4,07.1,0000.0,0002.90,0001.87,0001.51
2023-02-16 07:24:00,,0825.8,5.02,0.00,22.7,21.1,00.0,31.6,24.3,07.1,0000.0,0002.95,0001.86,0001.50
2023-02-16 07:25:00,,0825.7,5.00,0.00,22.6,20.9,00.0,31.5,24.3,07.1,0000.0,0002.92,0001.83,0001.47
2023-02-16 07:26:00,,0825.7,5.00,0.00,22.6,20.8,00.0,31.5,24.3,07.1,0000.0,0002.94,0001.84,0001.46
2023-02-16 07:27:00,,0825.7,5.00,0.00,22.6,20.9,00.0,31.5,24.2,07.1,0000.0,0003.03,0001.87,0001.47
2023-02-16 07:28:00,,0825.7,5.05,0.00,22.6,21.8,00.0,31.5,24.4,07.1,0000.0,0002.96,0001.84,0001.47
2023-02-16 07:29:00,,0825.8,4.94,0.00,22.7,22.8,00.0,31.4,24.7,07.1,0000.0,0002.85,0001.83,0001.48
2023-02-16 07:30:00,,0825.8,4.99,0.00,22.8,23.2,00.0,31.5,24.8,07.1,0000.0,0002.80,0001.80,0001.46
2023-02-16 07:31:00,,0825.8,5.00,0.00,22.8,22.7,00.0,31.5,24.8,07.1,0000.0,0002.84,0001.80,0001.47
2023-02-16 07:32:00,,0825.8,4.98,0.00,22.8,22.2,00.0,31.6,24.6,07.1,0000.0,0003.00,0001.79,0001.46
2023-02-16 07:33:00,,0825.9,4.99,0.00,22.8,21.8,00.0,31.6,24.5,07.1,0000.0,0003.03,0001.79,0001.46
2023-02-16 07:34:00,,0825.9,5.00,0.00,22.8,21.4,00.0,31.6,24.5,07.1,0000.0,0003.07,0001.81,0001.49
2023-02-16 07:35:00,,0825.8,4.99,0.00,22.7,21.1,00.0,31.6,24.4,07.1,0000.0,0003.01,0001.83,0001.52
2023-02-16 07:36:00,,0826.0,5.00,0.00,22.7,20.9,00.0,31.6,24.4,07.1,0000.0,0003.07,0001.87,0001.55
2023-02-16 07:37:00,,0826.0,4.99,0.00,22.6,20.8,00.0,31.5,24.3,07.1,0000.0,0003.17,0001.93,0001.58
2023-02-16 07:38:00,,0826.0,5.00,0.00,22.6,20.6,00.0,31.5,24.3,07.1,0000.0,0003.15,0001.95,0001.60
2023-02-16 07:39:00,,0826.1,5.01,0.00,22.6,20.8,00.0,31.5,24.3,07.1,0000.0,0003.21,0001.97,0001.61
2023-02-16 07:40:00,,0826.0,4.95,0.00,22.6,21.9,00.0,31.5,24.5,07.1,0000.0,0003.37,0002.02,0001.64
2023-02-16 07:41:00,,0826.0,5.01,0.00,22.7,22.8,00.0,31.5,24.7,07.1,0000.0,0003.48,0002.04,0001.66
2023-02-16 07:42:00,,0826.2,4.97,0.00,22.8,22.9,00.0,31.5,24.8,07.1,0000.0,0003.37,0002.07,0001.69
2023-02-16 07:43:00,,0825.7,5.00,0.00,22.8,22.3,00.0,31.5,24.7,07.1,0000.0,0003.17,0002.10,0001.74
2023-02-16 07:44:00,,0825.7,5.00,0.00,22.8,21.8,00.0,31.5,24.5,07.1,0000.0,0003.12,0002.12,0001.79
2023-02-16 07:45:00,,0825.7,5.01,0.00,22.7,21.3,00.0,31.5,24.4,07.1,0000.0,0003.17,0002.21,0001.87
2023-02-16 07:46:00,,0825.7,5.00,0.00,22.6,20.8,00.0,31.5,24.2,07.2,0000.0,0003.28,0002.27,0001.90
2023-02-16 07:47:00,,0825.7,4.97,0.00,22.5,20.5,00.0,31.5,24.0,07.2,0000.0,0003.32,0002.32,0001.95
2023-02-16 07:48:00,,0825.7,5.00,0.00,22.4,20.2,00.0,31.5,23.8,07.3,0000.0,0003.27,0002.33,0002.01
2023-02-16 07:49:00,,0825.7,4.98,0.00,22.3,20.2,00.0,31.4,23.8,07.3,0000.0,0003.32,0002.41,0002.10
2023-02-16 07:50:00,,0825.7,4.97,0.00,22.4,21.2,00.0,31.4,24.1,07.3,0000.0,0003.38,0002.49,0002.19
2023-02-16 07:51:00,,0825.7,4.94,0.00,22.5,22.3,00.0,31.3,24.4,07.3,0000.0,0003.27,0002.51,0002.24
2023-02-16 07:52:00,,0825.7,5.02,0.00,22.6,23.0,00.0,31.4,24.6,07.3,0000.0,0003.30,0002.59,0002.28
2023-02-16 07:53:00,,0825.7,5.06,0.00,22.6,22.4,00.0,31.4,24.5,07.3,0000.0,0003.27,0002.60,0002.30
2023-02-16 07:54:00,,0825.7,4.99,0.00,22.6,21.7,00.0,31.4,24.3,07.3,0000.0,0003.42,0002.66,0002.32
2023-02-16 07:55:00,,0825.7,5.01,0.00,22.5,21.1,00.0,31.4,24.0,07.3,0000.0,0003.65,0002.74,0002.35
2023-02-16 07:56:00,,0825.6,5.00,0.00,22.4,20.6,00.0,31.4,23.8,07.4,0000.0,0003.67,0002.73,0002.34
2023-02-16 07:57:00,,0825.6,5.00,0.00,22.2,20.2,00.0,31.4,23.6,07.4,0000.0,0004.08,0002.70,0002.36
2023-02-16 07:58:00,,0825.6,5.01,0.00,22.1,20.1,00.0,31.3,23.5,07.4,0000.0,0004.09,0002.72,0002.38
2023-02-16 07:59:00,,0825.6,4.98,0.00,22.2,21.1,00.0,31.3,23.8,07.4,0000.0,0004.16,0002.75,0002.39
